Location: San Pelegr�n
(42.1868°N, 0.0079°E)
Time: 03:01:44
(UTC+00:00)

Cosmos 1959 Rocket - Pass Details

Date: 24 January 2020
Orbit: 947 x 998 km, 83.0° (Epoch: 16 February)

Event Time Altitude Azimuth Distance (km) Brightness Sun altitude
Rises 18:10:51 0° 178° (S) 3,642 7.7 -12.6°
Reaches altitude 10° 18:13:21 10° 176° (S) 2,692 6.9 -13.0°
Maximum altitude 18:19:28 71° 94° (E) 1,012 4.4 -14.1°
Drops below altitude 10° 18:25:33 10° 12° (NNE) 2,683 6.6 -15.2°
Sets 18:28:03 0° 10° (N) 3,629 7.3 -15.7°
